Theta_e
356 355 361 362 361 361 360 360 360 360 360 359 358 358 358 356 357 358 359 360 360 359 360 360 360 360 358 357 355 352 345 340
354 356 358 361 361 361 360 359 360 360 360 360 359 357 357 357 357 357 358 359 358 357 358 360 360 360 357 357 355 349 343 339
353 357 357 360 361 360 360 359 359 359 360 360 358 358 358 358 357 356 357 358 357 356 357 358 360 359 357 356 353 349 343 338
355 356 355 355 358 360 360 360 359 359 360 359 358 357 358 358 357 357 356 356 356 356 357 357 359 358 357 355 353 349 343 339
352 354 355 356 354 355 356 360 359 359 359 359 358 356 356 357 357 357 354 354 354 355 356 357 360 359 357 355 351 350 346 340
349 351 352 354 353 351 352 356 359 358 359 359 358 357 353 350 352 353 353 354 353 354 354 356 358 358 357 355 353 350 345 333
343 347 349 352 352 353 353 352 352 352 354 354 354 352 349 346 346 350 352 354 354 353 354 355 357 357 356 353 352 351 338 332
341 345 348 349 351 351 351 351 351 350 352 352 351 349 347 345 346 347 346 350 350 351 345 350 353 355 354 351 349 349 341 331
338 343 347 348 350 350 349 351 351 350 351 349 349 348 345 342 342 342 342 341 345 345 342 343 345 349 351 351 349 346 345 333
335 339 345 347 347 348 348 350 349 348 349 347 347 348 345 341 339 341 341 340 341 344 342 338 340 343 346 349 349 347 345 341
335 335 341 344 345 344 347 348 347 348 348 346 345 346 345 342 339 340 340 341 341 343 342 340 337 338 339 343 345 347 346 346
335 335 336 340 341 341 344 344 344 344 343 344 344 344 345 341 338 338 339 340 341 342 341 340 338 336 335 336 338 340 343 345
336 334 335 338 339 339 341 340 340 340 341 342 341 342 342 341 339 339 339 340 341 341 341 338 338 335 336 336 337 337 339 344
334 335 333 335 335 338 338 339 336 338 340 341 340 339 340 338 338 338 340 342 342 341 340 339 337 336 334 335 336 337 338 341
335 337 336 336 335 337 339 340 341 339 340 341 340 338 337 336 334 336 338 338 341 340 342 340 338 338 337 337 341 339 340 341
336 338 336 335 334 334 337 339 339 339 339 338 338 338 335 334 335 334 334 334 336 339 340 340 338 337 335 337 334 333 334 336
327 337 338 336 335 334 337 339 341 341 338 338 338 337 336 335 336 334 331 328 335 338 339 338 338 333 333 333 331 327 324 327
313 326 338 339 338 336 337 336 335 336 334 334 333 334 335 335 336 335 332 332 335 338 338 339 337 333 330 330 330 326 320 322
310 317 334 340 340 338 336 338 337 338 335 334 338 337 335 334 335 335 333 333 335 339 337 337 335 334 333 331 331 330 328 326
Wind_Speed
9 9 15 18 16 16 18 18 17 15 14 14 12 12 12 11 10 10 9 9 9 11 11 12 12 12 11 10 9 8 10 10
11 10 12 17 19 18 18 17 17 15 12 13 13 13 11 10 8 8 8 7 7 8 9 9 10 11 11 9 9 11 11 11
14 10 8 16 16 17 17 16 15 15 14 12 12 11 9 9 8 7 7 6 6 6 6 7 7 8 8 9 11 11 11 11
8 9 7 6 12 16 16 15 15 15 14 13 12 12 12 10 9 8 8 7 7 6 6 6 7 8 8 8 7 11 12 10
5 7 8 6 8 9 10 16 15 14 13 12 11 12 12 12 11 10 9 7 7 6 5 6 8 9 8 7 8 13 11 11
6 9 10 10 5 4 6 10 13 16 15 15 12 12 10 4 6 8 8 8 7 6 6 7 7 8 8 7 8 12 11 4
10 12 11 11 10 8 6 6 5 7 5 5 6 7 4 5 5 6 8 10 9 8 7 6 6 6 7 3 2 5 3 5
10 9 12 10 10 10 5 4 3 2 3 4 5 4 4 3 3 2 2 2 3 6 2 3 2 2 3 3 2 2 3 5
11 10 11 10 12 11 4 5 5 4 4 4 4 5 3 2 3 3 2 3 3 2 3 2 1 2 3 5 5 5 5 5
13 11 12 11 12 10 7 7 6 5 6 4 4 4 4 4 4 2 3 3 2 3 3 3 3 3 3 3 3 4 5 6
9 13 10 10 8 7 7 9 7 6 5 4 4 5 6 4 3 3 3 3 2 3 4 4 4 3 3 3 4 3 5 3
7 9 13 13 11 10 9 8 6 6 5 5 5 5 6 5 5 5 3 3 3 3 4 3 3 2 3 2 4 3 4 5
7 13 9 11 13 12 11 7 6 5 5 5 4 4 6 6 6 5 3 3 3 3 3 3 3 3 3 3 2 3 3 5
15 12 12 12 13 14 8 6 5 6 5 4 3 4 5 6 6 4 4 3 3 3 3 3 3 3 3 3 4 4 3 4
9 12 12 13 12 11 6 5 4 4 4 4 4 5 6 5 6 6 4 4 3 2 2 3 3 2 2 2 2 1 2 2
5 8 13 13 11 10 7 7 3 6 6 3 5 7 7 5 6 5 3 3 4 4 3 3 3 2 0 1 1 1 1 3
8 9 9 15 12 13 10 8 3 5 3 2 4 4 6 8 8 7 7 5 5 3 4 4 3 2 2 1 3 1 2 3
11 12 15 17 15 14 11 6 3 4 3 1 1 2 6 8 8 7 7 6 4 4 4 4 4 5 3 1 1 3 2 1
14 14 15 13 14 14 15 13 11 7 7 4 5 4 4 7 7 8 8 7 6 4 4 4 4 3 4 4 2 1 2 2
Wind_Direction
143 137 140 139 140 141 140 137 134 137 136 134 135 134 135 137 136 137 138 139 136 137 137 140 141 139 140 146 156 144 127 114
147 143 145 146 147 150 149 144 141 140 143 145 147 147 148 145 144 141 137 135 137 136 134 137 139 136 137 134 136 143 136 130
150 146 149 152 152 151 151 146 148 148 153 154 150 147 148 151 149 143 140 139 140 132 131 134 134 132 133 131 144 152 148 141
132 134 129 156 157 153 149 154 157 152 158 162 160 156 160 165 162 160 160 159 154 150 146 145 147 146 146 144 150 159 159 147
108 142 143 150 169 158 157 165 161 161 165 162 164 168 174 174 173 172 172 175 175 169 164 156 153 152 155 158 147 162 164 154
123 157 165 175 184 142 139 173 172 171 171 174 176 181 180 164 177 185 182 189 182 186 183 178 167 160 159 171 167 174 166 139
168 174 177 181 180 170 171 177 166 187 178 165 178 188 179 177 182 184 190 192 191 196 200 197 191 179 161 170 191 169 143 155
172 176 179 174 177 179 174 164 166 171 170 176 182 174 187 179 194 184 199 182 187 203 202 211 209 194 161 164 189 176 173 181
179 188 179 175 175 184 151 177 181 180 194 188 174 176 168 181 192 193 205 209 195 177 193 210 213 188 184 186 200 199 202 195
181 184 185 178 180 177 165 177 186 191 195 183 169 175 175 185 197 182 216 218 205 171 183 200 215 220 213 218 208 225 225 213
186 182 178 186 175 175 173 177 188 194 201 171 186 188 185 180 190 199 215 226 209 186 197 206 215 238 232 236 251 232 250 248
194 179 189 179 172 177 188 180 179 183 178 194 200 182 188 178 195 206 219 233 220 210 203 209 216 220 246 234 251 266 257 237
180 195 185 185 184 182 187 182 180 184 191 200 186 182 194 181 189 204 206 236 210 206 207 174 199 230 225 221 235 244 253 228
201 183 185 184 187 189 176 167 159 179 198 198 176 190 190 183 187 179 196 225 208 206 207 189 183 178 203 226 236 254 246 249
196 184 185 182 181 175 145 136 152 169 200 186 200 199 177 195 175 179 188 207 179 182 201 173 161 163 203 200 173 65 310 288
199 185 192 181 173 160 170 170 166 205 201 198 208 195 177 175 174 174 191 197 200 203 193 154 140 144 60 107 120 7 334 319
239 236 200 200 179 187 185 179 170 170 186 182 191 196 172 178 181 183 186 198 196 181 194 172 156 147 147 161 126 109 17 349
211 206 217 200 191 190 171 134 92 90 77 146 155 220 205 175 176 181 183 182 182 181 187 177 162 146 148 85 163 136 113 210
251 228 211 211 191 185 173 177 179 182 181 200 201 199 201 170 173 179 182 182 185 187 178 175 171 168 143 141 129 69 67 120